Hourly Data Report for October 01, 2017

All times are specified in Local Standard Time (LST). Add 1 hour to adjust for Daylight Saving Time where and when it is observed.

DAUPHIN
MANITOBA

51°06'03.000" N
100°03'09.000" W
304.50 m
5040689
71036
YDN

Download Data

Hourly Data (October 2017)
Hourly Data Report for October 1, 2017
Temp Definition
°C
Dew Point Temp Definition
°C
Rel Hum Definition
%
Wind Dir Definition
10's deg

Wind Spd Definition
km/h
Visibility Definition
km
Stn Press Definition
kPa
Hmdx Definition


Wind Chill Definition


Weather Definition


TIME
00:00 Legend Double Dagger 14.1 12.7 91 17 9 8.1 96.79     Moderate Rain,Fog
01:00 Legend Double Dagger 13.2 12.7 97 10 8 16.1 96.71     Rain
02:00 Legend Double Dagger 10.2 10.1 99 9 11 2.0 96.69     Fog
03:00 Legend Double Dagger 10.2 10.1 99 9 8 2.4 96.65     Fog
04:00 Legend Double Dagger 9.6 9.5 99 LegendMM 4 0.6 96.63     Fog
05:00 Legend Double Dagger 8.9 8.8 99   0 0.4 96.60     Fog
06:00 Legend Double Dagger 10.5 10.5 100   0 8.1 96.57     Fog
07:00 Legend Double Dagger 11.1 11.1 100 16 5 16.1 96.56     LegendNANA
08:00 Legend Double Dagger 13.3 13.2 99 13 18 16.1 96.52     LegendNANA
09:00 Legend Double Dagger 13.8 13.7 99 14 18 16.1 96.54     LegendNANA
10:00 Legend Double Dagger 14.4 13.6 95 13 21 16.1 96.56     LegendNANA
11:00 Legend Double Dagger 15.1 13.7 91 10 9 16.1 96.53     LegendNANA
12:00 Legend Double Dagger 16.7 14.3 86 3 8 16.1 96.50     LegendNANA
13:00 Legend Double Dagger 17.0 14.4 84 5 11 16.1 96.48     LegendNANA
14:00 Legend Double Dagger 17.7 13.9 78 12 17 16.1 96.40     LegendNANA
15:00 Legend Double Dagger 18.0 13.3 74 11 21 16.1 96.36     LegendNANA
16:00 Legend Double Dagger 17.6 13.3 76 13 26 16.1 96.35     LegendNANA
17:00 Legend Double Dagger 16.8 13.0 78 15 26 16.1 96.39     LegendNANA
18:00 Legend Double Dagger 16.2 12.9 81 15 21 16.1 96.42     LegendNANA
19:00 Legend Double Dagger 14.9 13.0 88 14 22 16.1 96.46     LegendNANA
20:00 Legend Double Dagger 14.4 13.1 92 13 18 16.1 96.46     LegendNANA
21:00 Legend Double Dagger 14.0 12.9 93 14 17 16.1 96.50     LegendNANA
22:00 Legend Double Dagger 13.6 13.0 96 12 9 8.1 96.49     Heavy Rain,Fog
23:00 Legend Double Dagger 12.6 12.3 98 10 8 16.1 96.47     LegendNANA

Notes on Data Quality.

Legend

  • E = Estimated
  • M = Missing
  • NA = Not Available
  • ‡ = Partner data that is not subject to review by the National Climate Archives
Date modified: